Notices

What's New in latest Release from April 7th, 2021:

- Updated Glossary, including Speed of Maximum Gust, and Total Hourly Precipitation

- Updated national and regional climate services offices contacts and prices information

- Addition of station inventory lists for 1981-2010, 1971-2000, and 1961-1990 Normals.

If you haven't already, please take our survey and provide feedback about our website: https://eccc.sondage-survey.ca/f/LanguageSelection.aspx?s=442ca660-fcf1-47c0-95a9-59707d6fd709

Hourly Data Report for April 04, 2021

WIARTON A
ONTARIO
Current Station Operator: NAVCAN

44°44'39.000" N
81°06'31.000" W
221.90 m
6119499
71633
YVV

Download Data

Hourly Data (April 2021)
Hourly Data Report for April 4, 2021
TIME
LST
Temp Definition
°C
Dew Point Definition
°C
Rel Hum Definition
%
Precip. Amount Definition
mm

Wind Dir Definition
10's deg

Wind Spd Definition
km/h
Visibility Definition
km
Stn Press Definition
kPa
Hmdx Definition


Wind Chill Definition


Weather Definition


00:00 -0.2 -1.9 89   36 1 24.1 99.23   -1 LegendNANA
01:00 0.4 -1.6 86   20 5 24.1 99.27     Clear
02:00 -2.5 -3.4 94   36 2 24.1 99.27   -3 LegendNANA
03:00 -2.3 -2.9 96   20 5 24.1 99.30   -4 LegendNANA
04:00 -3.6 -4.5 94   17 6 24.1 99.32   -6 Clear
05:00 -3.2 -3.7 97   15 6 24.1 99.36   -6 LegendNANA
06:00 -3.5 -4.0 96   15 3 24.1 99.43   -5 LegendNANA
07:00 -0.9 -2.0 92   23 4 24.1 99.48   -2 Clear
08:00 3.0 0.6 84   19 4 24.1 99.49     LegendNANA
09:00 4.9 -0.3 69   35 3 24.1 99.56     LegendNANA
10:00 7.3 0.4 61   35 6 24.1 99.58     Clear
11:00 8.0 -0.4 55   33 8 24.1 99.61     LegendNANA
12:00 10.2 -1.6 44   35 4 24.1 99.58     LegendNANA
13:00 10.6 -0.9 45   30 9 24.1 99.56     Clear
14:00 11.3 -0.9 42   32 6 24.1 99.57     LegendNANA
15:00 10.8 0.4 48   31 5 24.1 99.58     LegendNANA
16:00 10.4 0.2 49   30 6 24.1 99.53     Clear
17:00 11.2 0.5 48   34 3 24.1 99.51     LegendNANA
18:00 10.2 -0.2 48   24 8 24.1 99.51     LegendNANA
19:00 7.4 -0.6 57   26 7 24.1 99.53     Clear
20:00 5.2 -0.7 66   26 7 24.1 99.53     LegendNANA
21:00 3.6 -0.4 75   23 8 24.1 99.55     LegendNANA
22:00 2.3 0.9 91   22 5 24.1 99.52     Clear
23:00 0.3 -0.5 95   13 10 24.1 99.50     LegendNANA

Notes on Data Quality.

Legend

  • E = Estimated
  • M = Missing
  • NA = Not Available*
  • [empty] = Indicates an unobserved value
Date modified: